Regional Weather Roundup
Issued by NWS Newport/Morehead, NC

Current Version | Previous Version | Text Only | Print | Product List | Glossary On
Versions: 1 2 3 4 5 6 7 8 9 10 11 12 13 14 15 16 17 18 19 20 21 22 23 24 25 26 27 28 29 30 31 32 33 34 35 36 37 38 39 40 41 42 43 44 45 46 47 48 49 50
000
ASUS42 KMHX 172322
RWRMHX
WEATHER ROUNDUP FOR EASTERN NORTH CAROLINA
NATIONAL WEATHER SERVICE NEWPORT/MOREHEAD CITY NC
600 PM EST WED DEC 17 2014

NOTE: "FAIR" INDICATES FEW OR NO CLOUDS BELOW 12,000 FEET
WITH NO SIGNIFICANT WEATHER AND/OR OBSTRUCTIONS TO VISIBILITY

NCZ015>017-031-032-045>047-102-103-180000-
NORTH COAST

CITY           SKY/WX    TMP DP  RH WIND       PRES   REMARKS
EDENTON        CLEAR     49  41  75 CALM      30.04R
ELIZABETH CITY PTCLDY    52  39  61 W6        30.03R
KITTY HAWK     PTCLDY    48  45  88 CALM      30.01R
MANTEO         PTCLDY    48  45  89 CALM      30.03R

$$

NCZ045>047-081-094-103-104-180000-
CENTRAL COAST

CITY           SKY/WX    TMP DP  RH WIND       PRES   REMARKS
FRISCO         PTCLDY    50  44  80 W5        30.04R
SWANQUARTER      N/A     48 N/A N/A SW2       30.00S

$$

NCZ095-097-098-100-101-180000-
SOUTHERN COAST

CITY           SKY/WX    TMP DP  RH WIND       PRES   REMARKS
BEAUFORT       PTCLDY    53  47  79 SW8       30.05R
CEDAR ISLAND     N/A     52 N/A N/A SW3G9     30.09R
JACKSONVILLE   CLEAR     53  41  63 W3        30.06R
PINEY ISLAND   NOT AVBL
WILMINGTON     CLEAR     51  42  71 SW5       30.07R


$$

NCZ011>013-027>030-043-044-078>080-089-090>093-098-180000-
COASTAL PLAIN

CITY           SKY/WX    TMP DP  RH WIND       PRES   REMARKS
AHOSKIE        CLEAR     46  40  81 CALM      30.04R
CLINTON        CLEAR     48  43  82 CALM      30.07R
ELIZABETHTOWN  CLEAR     49  42  78 CALM      30.07R
GOLDSBORO      CLEAR     51  45  79 CALM      30.04R
GREENVILLE     CLEAR     46  39  76 CALM      30.06R
HAVELOCK       NOT AVBL
KENANSVILLE    CLEAR     44  40  84 CALM      30.07R
KINSTON        CLEAR     45  41  87 CALM      30.06R
NEW BERN       CLEAR     48  41  76 CALM      30.06R
RICHLANDS      CLEAR     46  39  76 CALM      30.07R
ROCKY MOUNT    CLEAR     44  40  85 CALM      30.04R
WASHINGTON     CLEAR     47  41  78 CALM      30.05R
WHITEVILLE     CLEAR     51  41  69 CALM      30.08R

$$

AMZ130-135-150-152-154-156-158-170-250-252-270-ANZ085-086-088-633-658-670-180000-
MARINE OBSERVATIONS

STATION/POSITION TIME  TEMP    WIND        PRES    WAVE   SWELL
                       AIR SEA DIR/SP/G            HT/PER HT/PER
                 (UTC) (F)     (DEG/KT/KT) (MB)    (FT/S) (FT/S)
CHESAPEAKE LIGHT 2300   52     240/  6/  6 1016.7
64 E VA BEACH    2300   53 55  220/ 10/ 12 1015.6    3/ 8   3/ 8
DUCK             2300   52 49  270/  9/ 10 1015.7
2 E DUCK         2300      49                N/A     1/10
10 NE DUCK       2300      52                N/A     2/ 8
OREGON INLET     2300   49 51  170/  2/  3 1016.8
13E OREGON INLT  2300      53                N/A     2/ 8
HATTERAS CG      2300   53 54  240/  6/  7 1017.5
DIAMOND BUOY     2300   57                 1017.2    3/ 8
17 S OCRACOKE    NOT AVBL
CAPE LOOKOUT     2300   55     230/  8/ 11 1017.4
BEAUFORT LAB     2300   54 53  240/  4/  7 1016.6
30 SE NEW RIVER  2300   58 61  240/ 12/ 14 1018.1    3/ 6   2/ 6
5 SE WRIGHTSVLE  2300   53 55  250/ 10/ 12 1018.3
225 S CAPE HAT   2237   67 73  300/  6/ 10 1018.4    6/ 8   5/ 8
41 SE CHARLESTON 2300   60 73  270/  6/  8 1018.9    2/ 4   2/ 4

$$



USA.gov is the U.S. government's official web portal to all federal, state and local government web resources and services.